Location: Casteau
(50.5142°N, 4.0161°E)
Time: 08:45:46
(UTC+00:00)

Resurs 1-3 - Pass Details

Date: 18 September 2020
Orbit: 631 x 632 km, 97.9° (Epoch: 27 October)

Event Time Altitude Azimuth Distance (km) Brightness Sun altitude
Exits shadow 20:01:14 34° 178° (S) 1,049 4.4 -20.7°
Maximum altitude 20:03:06 75° 256° (WSW) 660 3.7 -20.9°
Drops below altitude 10° 20:07:31 10° 343° (NNW) 2,026 6.8 -21.5°
Sets 20:09:44 0° 345° (NNW) 2,939 7.7 -21.8°
